This is the latest recevied weather packets stored in our database for station/object WC4PEM-11. If no packets are shown the sender has not sent any weather packets the latest 10 day(s).
| Time | Temp. | Humidity | Pressure | Rain* | Wind** | Luminosity | Snow |
|---|---|---|---|---|---|---|---|
| 1777165409 | 21.67° C | 92% | 1011.1 hPa | 0 mm | - | - | - |
| 1777165109 | 21.67° C | 92% | 1011 hPa | 0 mm | - | - | - |
| 1777164809 | 21.67° C | 91% | 1011 hPa | 0 mm | - | - | - |
| 1777164509 | 21.67° C | 91% | 1010.9 hPa | 0 mm | - | - | - |
| 1777164271 | 21.67° C | 90% | 1010.8 hPa | 0 mm | - | - | - |
| 1777164209 | 21.67° C | 90% | 1010.8 hPa | 0 mm | - | - | - |
| 1777164017 | 21.67° C | 89% | 1010.5 hPa | 0 mm | - | - | - |
| 1777163909 | 21.67° C | 90% | 1010.6 hPa | 0 mm | - | - | - |
| 1777163609 | 21.67° C | 89% | 1010.5 hPa | 0 mm | - | - | - |
| 1777163309 | 22.22° C | 89% | 1010.5 hPa | 0 mm | - | - | - |
| 1777163009 | 22.22° C | 88% | 1010.5 hPa | 0 mm | - | - | - |
| 1777162709 | 22.22° C | 87% | 1010.5 hPa | 0 mm | - | - | - |
| 1777162409 | 22.78° C | 86% | 1010.4 hPa | 0 mm | - | - | - |
| 1777162109 | 22.78° C | 86% | 1010.4 hPa | 0 mm | - | - | - |
| 1777161809 | 23.33° C | 84% | 1010.2 hPa | 0 mm | - | - | - |
| 1777161509 | 23.89° C | 83% | 1009.9 hPa | 0 mm | - | - | - |
| 1777161209 | 24.44° C | 82% | 1009.9 hPa | 0 mm | - | - | - |
| 1777160909 | 25° C | 81% | 1009.5 hPa | 0 mm | - | - | - |
| 1777160609 | 25° C | 80% | 1009.3 hPa | 0 mm | - | - | - |
| 1777160309 | 25.56° C | 79% | 1009 hPa | 0 mm | - | - | - |
| 1777160009 | 25.56° C | 80% | 1009.3 hPa | 0 mm | - | - | - |
| 1777159709 | 25.56° C | 78% | 1009.5 hPa | 0 mm | - | - | - |
| 1777159409 | 26.11° C | 76% | 1009.6 hPa | 0 mm | - | - | - |
| 1777159109 | 26.11° C | 76% | 1009.7 hPa | 0 mm | - | - | - |
| 1777158859 | 25.56° C | 75% | 1009.8 hPa | 0 mm | - | - | - |
* Rain latest hour (hover to see other rain measurements)
** Current wind speed in m/s (hover to see current wind gust speed)